User: anonymous   Login
Location: Unspecified
(0.0000°N, 0.0000°E)
Time: 16:40:25
(UTC+00:00)
Language:

ZHUHAI-1 01 - Orbit

View from above orbital plane
View from above orbital plane
View from above satellite
View from above satellite

Ground track
Ground track

The orbit data is extracted from the following two-line orbital elements,

1 42761U 17034D   18170.18262847  .00000084  00000-0  18731-4 0  9996
2 42761  43.0193  72.0856 0008379 124.9333  34.9408 15.09378769 55746
Epoch (UTC): 19 June 2018 04:22:59
Eccentricity: 0.0008379
inclination: 43.0193°
perigee height: 532 km
apogee height: 544 km
right ascension of ascending node: 72.0856°
argument of perigee: 124.9333°
revolutions per day: 15.09378769
mean anomaly at epoch: 34.9408°
orbit number at epoch: 5574

The dashed part of the orbit path shows where the satellite is in the earth's shadow,  

DLR